AXB1996 VECC-VEBD

Flight info

Callsign AXB1996
Flight time N/A
Altitude 32000
Route ONOTO2C ONOTO A467 KHR W105 LOTPU
Aircraft A320/M-SDE3FGHIRWY/LB1

Departure

Time N/A
Airport Netaji Subhash Chandra Bose International Airport (VECC)

Arrival

Time 2026-05-06 02:11
Airport Bagdogra Airport (VEBD)
Time Latitude Longitude Altitude Speed Heading
2026-05-06 01:42 24.45565 87.97534 31876 ft 441 kts 326°
2026-05-06 01:42 24.48303 87.96037 31879 ft 441 kts 326°
2026-05-06 01:43 24.53794 87.93033 31880 ft 440 kts 326°
2026-05-06 01:43 24.59277 87.90026 31876 ft 440 kts 326°
2026-05-06 01:44 24.64755 87.87021 31873 ft 440 kts 326°
2026-05-06 01:44 24.70234 87.84013 31895 ft 440 kts 326°
2026-05-06 01:45 24.75693 87.81004 31888 ft 439 kts 326°
2026-05-06 01:45 24.81519 87.78716 31877 ft 451 kts 338°
2026-05-06 01:46 24.87554 87.76992 31865 ft 450 kts 338°
2026-05-06 01:46 24.93616 87.75247 31854 ft 450 kts 337°
2026-05-06 01:47 24.99633 87.73502 31862 ft 450 kts 337°
2026-05-06 01:47 25.05692 87.71742 31877 ft 450 kts 337°
2026-05-06 01:48 25.11746 87.69987 31871 ft 450 kts 337°
2026-05-06 01:48 25.17816 87.68228 31867 ft 451 kts 337°
2026-05-06 01:49 25.23878 87.66474 31863 ft 451 kts 337°
2026-05-06 01:49 25.29950 87.64714 31166 ft 451 kts 338°
2026-05-06 01:50 25.32849 87.63873 30619 ft 450 kts 338°
2026-05-06 01:50 25.35839 87.63006 30064 ft 448 kts 339°
2026-05-06 01:50 25.38850 87.62133 29434 ft 446 kts 339°
2026-05-06 01:50 25.41841 87.61265 28880 ft 442 kts 339°
2026-05-06 01:51 25.44797 87.60405 28339 ft 438 kts 339°
2026-05-06 01:51 25.47732 87.59547 27795 ft 435 kts 339°
2026-05-06 01:51 25.50646 87.58695 27272 ft 431 kts 339°
2026-05-06 01:51 25.53536 87.57852 26758 ft 427 kts 339°
2026-05-06 01:52 25.56412 87.57049 26257 ft 426 kts 343°
2026-05-06 01:52 25.59377 87.56782 25755 ft 432 kts 357°
2026-05-06 01:52 25.62365 87.57288 25276 ft 437 kts 12°
2026-05-06 01:52 25.65155 87.58548 24743 ft 443 kts 27°
2026-05-06 01:53 25.67746 87.60481 24214 ft 443 kts 33°
2026-05-06 01:53 25.70217 87.62447 23688 ft 442 kts 33°
2026-05-06 01:53 25.71901 87.63785 23302 ft 442 kts 33°
2026-05-06 01:53 25.74399 87.65767 22720 ft 439 kts 33°
2026-05-06 01:54 25.77677 87.68360 21997 ft 435 kts 33°
2026-05-06 01:54 25.80133 87.70304 21453 ft 433 kts 33°
2026-05-06 01:54 25.81786 87.71613 21089 ft 431 kts 33°
2026-05-06 01:54 25.84206 87.73532 20579 ft 427 kts 33°
2026-05-06 01:55 25.86610 87.75437 20216 ft 421 kts 33°
2026-05-06 01:55 25.88975 87.77315 19620 ft 414 kts 33°
2026-05-06 01:55 25.91301 87.79165 18932 ft 406 kts 33°
2026-05-06 01:55 25.93557 87.80961 18443 ft 393 kts 33°
2026-05-06 01:56 25.95745 87.82703 17915 ft 382 kts 33°
2026-05-06 01:56 25.97908 87.84424 17412 ft 382 kts 33°
2026-05-06 01:56 26.00062 87.86137 16927 ft 380 kts 33°
2026-05-06 01:56 26.02209 87.87843 16461 ft 379 kts 33°
2026-05-06 01:57 26.04350 87.89547 15987 ft 378 kts 33°
2026-05-06 01:57 26.06483 87.91247 15520 ft 377 kts 33°
2026-05-06 01:57 26.08610 87.92944 15042 ft 376 kts 33°
2026-05-06 01:57 26.10762 87.94579 14604 ft 373 kts 28°
2026-05-06 01:58 26.12989 87.96038 14161 ft 371 kts 28°
2026-05-06 01:58 26.15206 87.97497 13712 ft 370 kts 28°
2026-05-06 01:58 26.17415 87.98952 13284 ft 366 kts 28°
2026-05-06 01:58 26.19602 88.00400 12820 ft 364 kts 28°
2026-05-06 01:59 26.21761 88.01829 12459 ft 359 kts 28°
2026-05-06 01:59 26.23896 88.03242 12020 ft 356 kts 28°
2026-05-06 01:59 26.26016 88.04644 11575 ft 353 kts 29°
2026-05-06 01:59 26.28121 88.06035 11141 ft 351 kts 29°
2026-05-06 02:00 26.30207 88.07410 10720 ft 348 kts 29°
2026-05-06 02:00 26.32284 88.08780 10327 ft 344 kts 29°
2026-05-06 02:00 26.34290 88.10106 10196 ft 325 kts 29°
2026-05-06 02:00 26.36152 88.11342 9935 ft 311 kts 29°
2026-05-06 02:01 26.38013 88.12577 9506 ft 304 kts 29°
2026-05-06 02:01 26.39802 88.13763 8825 ft 302 kts 29°
2026-05-06 02:01 26.41619 88.14967 8027 ft 304 kts 29°
2026-05-06 02:01 26.43431 88.16169 7388 ft 301 kts 30°
2026-05-06 02:02 26.45166 88.17321 7170 ft 288 kts 30°
2026-05-06 02:02 26.46857 88.18445 7034 ft 277 kts 30°
2026-05-06 02:02 26.48484 88.19525 6912 ft 266 kts 30°
2026-05-06 02:02 26.50062 88.20571 6804 ft 255 kts 30°
2026-05-06 02:03 26.51564 88.21563 6442 ft 256 kts 32°
2026-05-06 02:03 26.52805 88.22984 6022 ft 259 kts 61°
2026-05-06 02:03 26.53291 88.24909 5595 ft 261 kts 90°
2026-05-06 02:03 26.52957 88.26883 5168 ft 257 kts 108°
2026-05-06 02:04 26.52601 88.28777 4826 ft 245 kts 86°
2026-05-06 02:04 26.53164 88.30480 4549 ft 232 kts 48°
2026-05-06 02:04 26.54356 88.31627 4281 ft 223 kts 33°
2026-05-06 02:04 26.55701 88.32399 4029 ft 213 kts 12°
2026-05-06 02:05 26.57145 88.32501 3798 ft 206 kts 355°
2026-05-06 02:05 26.58516 88.32458 3745 ft 192 kts 359°
2026-05-06 02:05 26.59848 88.32478 3320 ft 195 kts 359°
2026-05-06 02:05 26.61141 88.32062 2800 ft 198 kts 323°
2026-05-06 02:06 26.61935 88.30835 2312 ft 199 kts 283°
2026-05-06 02:06 26.61867 88.29400 2099 ft 186 kts 249°
2026-05-06 02:06 26.61302 88.28082 2017 ft 196 kts 241°
2026-05-06 02:06 26.60555 88.26800 2002 ft 198 kts 224°
2026-05-06 02:07 26.59469 88.25855 1996 ft 199 kts 204°
2026-05-06 02:07 26.58124 88.25661 2002 ft 198 kts 166°
2026-05-06 02:07 26.56964 88.26435 2004 ft 198 kts 128°
2026-05-06 02:07 26.56326 88.27795 2006 ft 199 kts 106°
2026-05-06 02:08 26.56204 88.29279 2003 ft 185 kts 82°
2026-05-06 02:08 26.56572 88.30580 1999 ft 168 kts 60°
2026-05-06 02:08 26.57269 88.31565 1994 ft 159 kts 40°
2026-05-06 02:08 26.58188 88.32214 1971 ft 156 kts 22°
2026-05-06 02:09 26.59218 88.32490 1850 ft 150 kts
2026-05-06 02:09 26.60236 88.32526 1689 ft 147 kts
2026-05-06 02:09 26.61250 88.32560 1510 ft 145 kts
2026-05-06 02:09 26.62253 88.32594 1329 ft 143 kts
2026-05-06 02:10 26.63256 88.32628 1143 ft 141 kts
2026-05-06 02:10 26.64223 88.32660 960 ft 141 kts
2026-05-06 02:10 26.65201 88.32692 775 ft 141 kts
2026-05-06 02:10 26.66167 88.32744 538 ft 140 kts
2026-05-06 02:11 26.67136 88.32773 436 ft 136 kts
2026-05-06 02:11 26.67997 88.32804 414 ft 113 kts
2026-05-06 02:11 26.68705 88.32822 404 ft 85 kts
2026-05-06 02:11 26.69125 88.32833 404 ft 42 kts
2026-05-06 02:12 26.69402 88.32846 402 ft 32 kts
2026-05-06 02:12 26.69554 88.32841 401 ft 12 kts 312°
2026-05-06 02:12 26.69564 88.32829 398 ft 5 kts 336°
2026-05-06 02:12 26.69609 88.32821 401 ft 0 kts 356°
2026-05-06 02:13 26.69612 88.32824 401 ft 3 kts 24°
2026-05-06 02:13 26.69576 88.32855 401 ft 15 kts 182°
2026-05-06 02:13 26.69446 88.32848 402 ft 20 kts 182°
2026-05-06 02:13 26.69303 88.32843 402 ft 22 kts 181°
2026-05-06 02:14 26.69146 88.32838 403 ft 23 kts 182°
2026-05-06 02:14 26.68998 88.32832 405 ft 24 kts 181°
2026-05-06 02:14 26.68823 88.32826 404 ft 26 kts 182°
2026-05-06 02:14 26.68685 88.32822 404 ft 10 kts 181°
2026-05-06 02:15 26.68621 88.32820 405 ft 8 kts 181°
2026-05-06 02:15 26.68571 88.32819 405 ft 6 kts 181°
2026-05-06 02:15 26.68549 88.32795 405 ft 4 kts 253°
2026-05-06 02:15 26.68544 88.32763 405 ft 4 kts 266°
2026-05-06 02:16 26.68545 88.32718 404 ft 7 kts 270°
2026-05-06 02:16 26.68525 88.32680 402 ft 5 kts 201°
2026-05-06 02:16 26.68493 88.32677 404 ft 4 kts 188°
2026-05-06 02:16 26.68481 88.32665 404 ft 1 kts 250°
2026-05-06 02:17 26.68493 88.32652 403 ft 4 kts 321°
2026-05-06 02:17 26.68506 88.32640 403 ft 2 kts 320°
2026-05-06 02:17 26.68515 88.32631 403 ft 2 kts 318°
2026-05-06 02:17 26.68517 88.32629 401 ft 0 kts 318°